TimeCST,TemperatureF,Dew PointF,Humidity,Sea Level PressureIn,VisibilityMPH,Wind Direction,Wind SpeedMPH,Gust SpeedMPH,PrecipitationIn,Events,Conditions,WindDirDegrees,DateUTC
12:52 AM,34.0,30.0,85,30.06,6.0,North,9.2,-,N/A,,Overcast,10,2012-12-25 06:52:00
1:52 AM,34.0,28.9,82,30.06,6.0,NNE,9.2,-,N/A,,Haze,20,2012-12-25 07:52:00
2:52 AM,34.0,28.9,82,30.07,6.0,NE,9.2,-,N/A,,Haze,40,2012-12-25 08:52:00
3:52 AM,34.0,28.0,79,30.08,7.0,NNE,10.4,-,N/A,,Overcast,20,2012-12-25 09:52:00
4:08 AM,33.8,28.4,81,30.07,7.0,NE,6.9,-,N/A,,Overcast,40,2012-12-25 10:08:00
4:52 AM,34.0,28.0,79,30.09,7.0,NE,10.4,-,N/A,,Overcast,50,2012-12-25 10:52:00
5:52 AM,34.0,28.0,79,30.07,7.0,NE,12.7,-,N/A,,Overcast,50,2012-12-25 11:52:00
6:52 AM,34.0,28.0,79,30.08,8.0,ENE,10.4,-,N/A,,Overcast,70,2012-12-25 12:52:00
7:41 AM,33.8,26.6,75,30.09,10.0,ENE,12.7,-,N/A,,Scattered Clouds,60,2012-12-25 13:41:00
7:52 AM,33.1,27.0,78,30.10,10.0,NE,10.4,-,N/A,,Clear,50,2012-12-25 13:52:00
8:52 AM,34.0,27.0,75,30.12,9.0,NE,11.5,-,N/A,,Partly Cloudy,40,2012-12-25 14:52:00
9:05 AM,33.8,26.6,75,30.11,9.0,NE,11.5,-,N/A,,Mostly Cloudy,40,2012-12-25 15:05:00
9:52 AM,34.0,28.0,79,30.13,9.0,ENE,12.7,-,N/A,,Overcast,60,2012-12-25 15:52:00
10:52 AM,36.0,28.0,73,30.12,9.0,NE,12.7,-,N/A,,Overcast,40,2012-12-25 16:52:00
11:52 AM,37.0,28.9,73,30.09,9.0,NE,6.9,-,N/A,,Overcast,40,2012-12-25 17:52:00
12:52 PM,37.0,28.9,73,30.04,10.0,NE,13.8,-,N/A,,Overcast,50,2012-12-25 18:52:00
1:52 PM,37.9,28.9,70,29.98,9.0,NE,11.5,-,N/A,,Overcast,50,2012-12-25 19:52:00
2:52 PM,37.9,28.9,70,29.97,9.0,ENE,11.5,-,N/A,,Overcast,60,2012-12-25 20:52:00
3:52 PM,37.9,28.9,70,29.95,9.0,NE,16.1,21.9,N/A,,Overcast,50,2012-12-25 21:52:00
4:52 PM,37.9,28.9,70,29.94,10.0,NE,11.5,-,N/A,,Overcast,50,2012-12-25 22:52:00
5:52 PM,37.0,30.0,76,29.94,6.0,NNE,15.0,23.0,0.00,Rain,Light Rain,30,2012-12-25 23:52:00
6:52 PM,36.0,30.9,82,29.90,3.0,NE,16.1,19.6,0.04,Rain,Rain,40,2012-12-26 00:52:00
7:52 PM,35.1,32.0,89,29.86,4.0,ENE,18.4,23.0,0.10,Rain,Light Rain,60,2012-12-26 01:52:00
8:52 PM,35.1,32.0,89,29.82,4.0,NE,18.4,26.5,0.05,Rain,Light Rain,40,2012-12-26 02:52:00
9:32 PM,35.6,32.0,87,29.71,4.0,NE,20.7,27.6,0.01,Rain,Light Rain,50,2012-12-26 03:32:00
9:52 PM,35.1,33.1,92,29.71,6.0,NE,20.7,28.8,0.01,,Overcast,50,2012-12-26 03:52:00
10:52 PM,36.0,33.1,89,29.68,5.0,NE,19.6,28.8,0.00,Rain,Light Rain,50,2012-12-26 04:52:00